Location: Tel Aviv
(32.0670°N, 34.7670°E)
Time: 01:06:52
(UTC+02:00)

Vanguard 1 - All Passes

Search period start: 23 January 2022 00:00
Search period end: 02 February 2022 00:00
Orbit: 652 x 3830 km, 34.2° (Epoch: 22 January)

Date Brightness Start Highest point End Pass type
(mag) Time Alt. Az. Time Alt. Az. Time Alt. Az.
23 Jan - 06:49:43 10° S 06:57:56 19° SSE 07:03:46 10° ESE daylight
23 Jan - 09:10:31 10° SW 09:19:56 49° SSE 09:25:29 10° E daylight
23 Jan - 11:34:07 10° W 11:40:27 76° N 11:44:58 10° ENE daylight
23 Jan - 13:56:03 10° WNW 14:00:38 86° NNE 14:05:24 10° ESE daylight
23 Jan - 16:16:30 10° W 16:20:35 29° SSW 16:26:07 10° SSE daylight
24 Jan - 07:08:57 10° SSW 07:19:15 26° SSE 07:25:51 10° E daylight
24 Jan - 09:31:31 10° WSW 09:40:56 64° SSE 09:46:24 10° E daylight
24 Jan - 11:55:25 10° W 12:01:25 69° N 12:05:52 10° E daylight
24 Jan - 14:17:02 10° WNW 14:21:30 73° SSW 14:26:23 10° ESE daylight
24 Jan - 16:38:01 10° WSW 16:41:34 19° SSW 16:46:05 10° SSE daylight
25 Jan - 05:12:22 10° SSE 05:17:06 12° SSE 05:21:09 10° SE visible
25 Jan - 07:28:55 10° SSW 07:40:30 35° SSE 07:47:21 10° E daylight
25 Jan - 09:52:44 10° WSW 10:01:55 80° SSE 10:07:15 10° ENE daylight
25 Jan - 12:16:40 10° W 12:22:23 69° N 12:26:48 10° E daylight
25 Jan - 14:38:02 10° W 14:42:21 51° SSW 14:47:12 10° SE daylight
25 Jan - 17:00:30 10° SW 17:02:34 12° SSW 17:04:55 10° S daylight
26 Jan - 05:28:59 10° S 05:38:37 18° SSE 05:45:40 10° ESE visible
26 Jan - 07:49:25 10° SW 08:01:40 46° SSE 08:08:33 10° E daylight
26 Jan - 10:14:08 10° WSW 10:22:53 87° NNW 10:28:05 10° ENE daylight
26 Jan - 12:37:52 10° WNW 12:43:22 76° N 12:47:46 10° E daylight
26 Jan - 14:59:08 10° W 15:03:10 34° SSW 15:07:47 10° SE daylight
27 Jan - 05:47:42 10° SSW 06:00:03 25° SSE 06:08:11 10° E visible
27 Jan - 08:10:18 10° SW 08:22:47 58° SSE 08:29:33 10° E daylight
27 Jan - 10:35:37 10° W 10:43:53 77° N 10:48:55 10° ENE daylight
27 Jan - 12:59:00 10° WNW 13:04:17 90° S 13:08:42 10° ESE daylight
27 Jan - 15:20:30 10° W 15:23:59 22° SSW 15:27:59 10° SSE daylight
28 Jan - 03:54:36 10° SSE 03:56:58 10° SE 03:59:11 10° SE visible
28 Jan - 06:07:20 10° SSW 06:21:24 33° SSE 06:29:58 10° E visible
28 Jan - 08:31:29 10° WSW 08:43:51 71° SSE 08:50:27 10° ENE daylight
28 Jan - 10:57:05 10° W 11:04:54 72° N 11:09:47 10° E daylight
28 Jan - 13:20:06 10° WNW 13:25:09 69° SSW 13:29:33 10° ESE daylight
28 Jan - 15:42:29 10° WSW 15:44:50 14° SSW 15:47:25 10° S daylight
29 Jan - 04:08:27 10° S 04:18:36 16° SE 04:26:32 10° ESE visible
29 Jan - 06:27:33 10° SW 06:42:42 43° SSE 06:51:20 10° E daylight
29 Jan - 08:52:55 10° WSW 09:04:53 84° SSE 09:11:17 10° ENE daylight
29 Jan - 11:18:32 10° W 11:25:55 73° N 11:30:40 10° E daylight
29 Jan - 13:41:14 10° W 13:45:57 47° SSW 13:50:13 10° SE daylight
30 Jan - 04:26:26 10° S 04:40:07 23° SSE 04:49:47 10° E visible
30 Jan - 06:48:13 10° SW 07:03:55 53° SSE 07:12:28 10° E daylight
30 Jan - 09:14:31 10° WSW 09:25:56 85° NNW 09:32:07 10° ENE daylight
30 Jan - 11:39:54 10° WNW 11:46:54 80° N 11:51:34 10° E daylight
30 Jan - 14:02:29 10° W 14:06:41 30° SSW 14:10:38 10° SE daylight
31 Jan - 04:45:33 10° SSW 05:01:33 31° SSE 05:11:59 10° E visible
31 Jan - 07:09:16 10° SW 07:25:06 65° SSE 07:33:27 10° ENE daylight
31 Jan - 09:36:11 10° W 09:47:01 78° N 09:52:57 10° E daylight
31 Jan - 12:01:11 10° WNW 12:07:51 86° SSW 12:12:25 10° ESE daylight
31 Jan - 14:24:04 10° W 14:27:22 19° SSW 14:30:36 10° SSE daylight
01 Feb - 02:49:08 10° SSE 02:57:58 14° SE 03:05:32 10° ESE visible
01 Feb - 05:05:23 10° SSW 05:22:55 40° SSE 05:33:39 10° E visible
01 Feb - 07:30:37 10° WSW 07:46:15 76° SSE 07:54:21 10° ENE daylight
01 Feb - 09:57:52 10° W 10:08:06 75° N 10:13:49 10° E daylight
01 Feb - 12:22:27 10° WNW 12:28:43 66° SSW 12:33:11 10° ESE daylight
01 Feb - 14:46:47 10° SW 14:48:02 11° SW 14:49:18 10° SSW daylight
